Regional Weather Roundup
Issued by NWS

Home | Current Version | Previous Version | Graphics & Text | Print | Product List | Glossary On
Versions: 1 2 3 4 5 6 7 8 9 10 11 12 13 14 15 16 17 18 19 20 21 22 23 24 25 26 27
000
ASUS45 KCYS 310710
RWRWY

WYOMING REGIONAL WEATHER ROUNDUP
NATIONAL WEATHER SERVICE CHEYENNE WY
100 AM MDT FRI OCT 31 2014

NOTE:  "FAIR" INDICATES FEW OR NO CLOUDS BELOW 12,000 FEET
WITH NO SIGNIFICANT WEATHER AND/OR OBSTRUCTIONS TO VISIBILITY.

WYZ001-310800-
YELLOWSTONE NATIONAL PARK

CITY           SKY/WX    TMP DP  RH WIND       PRES   REMARKS
LK YELLOWSTONE   N/A     29  27  92 NW3       30.28F
W YELLOWSTONE  NOT AVBL

$$
WYZ002>013-054>058-071-098>099-310800-
NORTHERN WYOMING

CITY           SKY/WX    TMP DP  RH WIND       PRES   REMARKS
JACKSON        PTCLDY    32  28  86 N3        30.24F
CODY           PTCLDY    39  27  60 SE5       30.18F
GREYBULL       MOCLDY    40  23  50 CALM      30.19F
WORLAND        MOCLDY    36  23  59 CALM      30.19F
SHERIDAN       CLEAR     40  26  57 S8        30.19F WCI  34
BUFFALO        CLEAR     44  25  47 SE21      30.25F
GILLETTE       CLEAR     36  30  79 S21       30.31S WCI  25
HULETT         FAIR      30  30 100 CALM      30.36S FOG
NEWCASTLE      CLOUDY    32  32 100 SE7       30.41  WCI  26

$$
WYZ014>020-022>026-101>103-310800-
CENTRAL WYOMING

CITY           SKY/WX    TMP DP  RH WIND       PRES   REMARKS
BIG PINEY      CLOUDY    30  24  78 NW3       30.29F
PINEDALE       PTSUNNY   28  27  93 W6        30.29  WCI  22
DUBOIS         FAIR      32  27  80 NW8       30.28F WCI  25
LANDER         CLOUDY    41  27  57 W3        30.23F
RIVERTON       MOCLDY    37  24  59 NW6       30.24F WCI  32
CASPER         PTCLDY    29  21  72 NW5       30.29F WCI  24
DOUGLAS        PTCLDY    39  31  72 SE17      30.36F WCI  30

$$
WYZ021-027>030-104>119-310800-
SOUTHERN WYOMING

CITY           SKY/WX    TMP DP  RH WIND       PRES   REMARKS
EVANSTON       MOCLDY    48  23  37 S5        30.24F
KEMMERER       PTSUNNY   43  27  52 N12       30.25F
FORT BRIDGER   FAIR      40  27  57 NW5       30.26F
ROCK SPRINGS   MOCLDY    44  25  47 SE13      30.24F
RAWLINS        PTCLDY    29  17  61 W3        30.31F
SARATOGA       FAIR      41  23  48 SE10G16   30.32F
LARAMIE        CLEAR     37  24  59 SE18      30.36F WCI  27
CHEYENNE       PTCLDY    34  26  72 S8        30.41S WCI  27
TORRINGTON     CLEAR     30  27  88 E7        30.41S WCI  23
PINE BLUFFS    FAIR      37  30  75 SE13G22   30.42F WCI  29

$$



USA.gov is the U.S. government's official web portal to all federal, state and local government web resources and services.